This is the latest recevied weather packets stored in our database for station/object HB9GFF-10. If no packets are shown the sender has not sent any weather packets the latest 10 day(s).
| Time | Temp. | Humidity | Pressure | Rain* | Wind** | Luminosity | Snow |
|---|---|---|---|---|---|---|---|
| 1778318233 | 25° C | 42% | 954 hPa | - | - | - | - |
| 1778318168 | 25° C | 47% | 954 hPa | - | - | - | - |
| 1778318102 | 25° C | 44% | 954 hPa | - | - | - | - |
| 1778318037 | 25° C | 45% | 954 hPa | - | - | - | - |
| 1778317971 | 24.44° C | 45% | 954 hPa | - | - | - | - |
| 1778317906 | 24.44° C | 43% | 954 hPa | - | - | - | - |
| 1778317841 | 24.44° C | 46% | 954 hPa | - | - | - | - |
| 1778317775 | 25° C | 40% | 954 hPa | - | - | - | - |
| 1778317710 | 25° C | 42% | 954 hPa | - | - | - | - |
| 1778317644 | 23.33° C | 51% | 954 hPa | - | - | - | - |
| 1778317579 | 23.33° C | 56% | 954 hPa | - | - | - | - |
| 1778317513 | 22.78° C | 51% | 954 hPa | - | - | - | - |
| 1778317448 | 22.22° C | 51% | 954 hPa | - | - | - | - |
| 1778317383 | 22.78° C | 55% | 954 hPa | - | - | - | - |
| 1778317317 | 21.67° C | 54% | 954 hPa | - | - | - | - |
| 1778317252 | 22.22° C | 54% | 954 hPa | - | - | - | - |
| 1778317187 | 22.22° C | 62% | 954 hPa | - | - | - | - |
| 1778317121 | 22.22° C | 57% | 954 hPa | - | - | - | - |
| 1778317056 | 22.22° C | 58% | 954 hPa | - | - | - | - |
| 1778316990 | 21.11° C | 64% | 954 hPa | - | - | - | - |
| 1778316925 | 21.11° C | 64% | 954 hPa | - | - | - | - |
| 1778316859 | 20.56° C | 63% | 955 hPa | - | - | - | - |
| 1778316794 | 20° C | 63% | 955 hPa | - | - | - | - |
| 1778316729 | 20.56° C | 62% | 955 hPa | - | - | - | - |
| 1778316663 | 21.11° C | 65% | 954 hPa | - | - | - | - |
* Rain since midnight (hover to see other rain measurements)
** Current wind speed in m/s (hover to see current wind gust speed)